Evans Head Observation History
Time Wind Speed Temp Pressure Rel. Hum Rain
16/09:30pm SE 10-12 kts 22.5°c 1012.2 hPa 59% 0.0mm
16/09:00pm SE 9-11 kts 22.6°c 1011.7 hPa 61% 0.0mm
16/08:30pm ESE 9-12 kts 22.6°c 1011.2 hPa 61% 0.0mm
16/08:00pm ESE 8-11 kts 22.7°c 1010.7 hPa 64% 0.0mm
16/07:30pm ESE 9-13 kts 22.9°c 1010.4 hPa 64% 0.0mm
16/07:00pm SE 9-12 kts 23.2°c 1009.7 hPa 64% 0.0mm
16/06:30pm SE 8-11 kts 24.1°c 1009.1 hPa 62% 0.0mm
16/06:00pm SE 11-13 kts 24.1°c 1008.5 hPa 63% 0.0mm
16/05:30pm ESE 11-14 kts 24.9°c 1008.2 hPa 60% 0.0mm
16/05:00pm SE 11-15 kts 25.7°c 1007.9 hPa 56% 0.0mm
16/04:30pm SE 10-14 kts 26.9°c 1007.6 hPa 56% 0.0mm
16/04:00pm SE 12-17 kts 26.4°c 1007.7 hPa 56% 0.0mm
16/03:30pm SE 11-16 kts 27.2°c 1007.7 hPa 52% 0.0mm
16/03:00pm SE 10-14 kts 27.8°c 1007.7 hPa 54% 0.0mm
16/02:30pm SE 10-14 kts 28.1°c 1007.6 hPa 56% 0.0mm
16/02:00pm SSE 11-16 kts 26.8°c 1007.8 hPa 55% 0.0mm
16/01:30pm SSE 13-18 kts 26.7°c 1007.9 hPa 59% 0.0mm
16/01:00pm SSE 12-16 kts 26.7°c 1008.0 hPa 61% 0.0mm
16/12:30pm S 13-18 kts 26.4°c 1008.0 hPa 61% 0.0mm
16/12:00pm S 16-21 kts 26.5°c 1007.8 hPa 58% 0.0mm
16/11:30am S 14-21 kts 26.4°c 1007.8 hPa 62% 0.0mm
16/11:00am S 16-22 kts 25.5°c 1007.9 hPa 62% 0.0mm
16/10:30am S 15-20 kts 25.2°c 1007.8 hPa 68% 0.0mm
16/10:00am S 15-23 kts 25.7°c 1007.6 hPa 74% 0.0mm
16/09:30am SSW 11-21 kts 27.7°c 1007.1 hPa 65% 0.0mm
16/09:00am W 5-8 kts 27.1°c 1006.8 hPa 72% 2.0mm
16/08:30am WNW 7-11 kts 25.9°c 1006.6 hPa 79% 2.0mm
16/08:00am NW 8-16 kts 24.5°c 1006.2 hPa 80% 2.0mm
16/07:30am NW 8-14 kts 22.6°c 1005.7 hPa 94% 2.0mm
16/07:00am NW 3-6 kts 21.2°c 1005.5 hPa 96% 2.0mm
16/06:30am NNE 4-6 kts 20.9°c 1005.1 hPa 96% 2.0mm
16/06:00am NNW 5-7 kts 20.6°c 1004.9 hPa 96% 2.0mm
16/05:30am NNW 4-6 kts 20.7°c 1004.4 hPa 96% 2.0mm
16/05:00am NNE 6-7 kts 20.9°c 1004.1 hPa 96% 2.0mm
16/04:30am N 4-6 kts 20.9°c 1004.2 hPa 96% 2.0mm
16/04:00am CALM 0 kts 21.1°c 1004.2 hPa 96% 2.0mm
16/03:30am NNW 4-6 kts 21.1°c 1004.1 hPa 96% 1.8mm
16/03:00am N 5-7 kts 21.4°c 1004.1 hPa 96% 1.8mm
16/02:30am N 8-12 kts 21.6°c 1004.2 hPa 96% 1.8mm
16/02:00am NNW 8-15 kts 21.7°c 1004.9 hPa 96% 1.8mm
16/01:30am NNW 6-10 kts 21.7°c 1004.6 hPa 96% 1.8mm
16/01:00am NNW 10-15 kts 21.7°c 1004.7 hPa 96% 1.8mm
16/12:30am WNW 5-9 kts 21.1°c 1004.8 hPa 96% 1.8mm
16/12:00am SSE 3-4 kts 20.8°c 1004.9 hPa 96% 1.8mm
Time Wind Speed Temp Pressure Rel. Hum Rain
15/11:30pm N 8-13 kts 21.2°c 1004.5 hPa 96% 1.8mm
15/11:00pm N 13-19 kts 20.7°c 1004.6 hPa 95% 1.8mm
15/10:30pm NNE 7-9 kts 20.8°c 1006.0 hPa 94% 1.4mm
15/10:00pm WNW 5-12 kts 21.1°c 1006.6 hPa 93% 1.2mm
15/09:49pm S 12-22 kts 20.9°c 1007.1 hPa 93% 1.2mm
15/09:30pm S 18-32 kts 22.1°c 1006.2 hPa 84% 0.2mm
15/09:21pm NNW 11-27 kts 24.6°c 1006.3 hPa 74% 0.0mm
15/09:20pm NNW 9-27 kts 24.7°c 1006.4 hPa 76% 0.0mm
15/09:00pm N 9-13 kts 24.7°c 1004.2 hPa 77% 0.0mm
15/08:30pm N 13-19 kts 24.7°c 1002.7 hPa 77% 0.0mm
15/08:00pm N 13-20 kts 24.9°c 1003.7 hPa 76% 0.0mm
15/07:30pm N 14-22 kts 25.3°c 1003.2 hPa 72% 0.0mm
15/07:00pm N 14-24 kts 25.7°c 1003.0 hPa 70% 0.0mm
15/06:30pm N 15-24 kts 26.9°c 1002.8 hPa 67% 0.0mm
15/06:00pm N 15-22 kts 28.0°c 1002.6 hPa 64% 0.0mm
15/05:30pm N 13-21 kts 29.1°c 1002.7 hPa 61% 0.0mm
15/05:00pm NNE 14-21 kts 29.4°c 1003.1 hPa 58% 0.0mm
15/04:30pm NNE 15-22 kts 29.7°c 1003.5 hPa 57% 0.0mm
15/04:00pm NNE 13-20 kts 30.9°c 1004.1 hPa 55% 0.0mm
15/03:30pm NNE 10-16 kts 32.2°c 1004.6 hPa 52% 0.0mm
15/03:00pm NNE 11-16 kts 32.1°c 1005.0 hPa 53% 0.0mm
15/02:30pm NNE 10-16 kts 33.0°c 1005.4 hPa 47% 0.0mm
15/02:00pm NNE 7-13 kts 33.9°c 1005.8 hPa 47% 0.0mm
15/01:30pm N 8-11 kts 33.3°c 1006.3 hPa 47% 0.0mm
15/01:00pm N 7-11 kts 32.5°c 1006.8 hPa 49% 0.0mm
15/12:30pm N 9-14 kts 31.4°c 1007.4 hPa 52% 0.0mm
15/12:00pm NNE 7-13 kts 30.3°c 1007.8 hPa 54% 0.0mm
15/11:30am N 7-11 kts 30.5°c 1008.3 hPa 52% 0.0mm
15/11:00am NE 8-14 kts 29.7°c 1008.4 hPa 57% 0.0mm
15/10:30am E 8-12 kts 27.9°c 1008.8 hPa 61% 0.0mm
15/10:00am N 4-7 kts 29.0°c 1009.0 hPa 59% 0.0mm
15/09:30am N 5-7 kts 28.0°c 1009.2 hPa 61% 0.0mm
15/09:00am NNW 5-7 kts 27.6°c 1009.3 hPa 65% 0.0mm
15/08:30am NNW 7-10 kts 25.6°c 1008.9 hPa 68% 0.0mm
15/08:00am NNW 6-10 kts 24.7°c 1009.0 hPa 71% 0.0mm
15/07:30am NNW 7-10 kts 23.1°c 1009.1 hPa 77% 0.0mm
15/07:00am NNW 7-10 kts 21.4°c 1008.9 hPa 85% 0.0mm
15/06:30am NNW 5-7 kts 19.8°c 1009.0 hPa 93% 0.0mm
15/06:00am NW 5-7 kts 19.2°c 1008.8 hPa 92% 0.0mm
15/05:30am NW 5-8 kts 19.3°c 1008.2 hPa 93% 0.0mm
15/05:00am NNW 4-6 kts 19.4°c 1008.1 hPa 94% 0.0mm
15/04:30am NNW 4-6 kts 19.4°c 1008.0 hPa 93% 0.0mm
15/04:00am NNW 6-9 kts 19.9°c 1008.1 hPa 93% 0.0mm
15/03:30am NNW 7-10 kts 20.2°c 1008.2 hPa 93% 0.0mm
15/03:00am N 8-11 kts 20.4°c 1008.3 hPa 93% 0.0mm
15/02:30am N 8-12 kts 20.4°c 1008.5 hPa 93% 0.0mm
15/02:00am N 8-13 kts 20.5°c 1008.8 hPa 91% 0.0mm
15/01:30am N 8-11 kts 20.9°c 1009.1 hPa 90% 0.0mm
15/01:00am N 9-12 kts 21.0°c 1009.4 hPa 90% 0.0mm
15/12:30am N 8-11 kts 21.2°c 1009.7 hPa 89% 0.0mm
15/12:00am N 9-12 kts 21.5°c 1010.0 hPa 87% 0.0mm
Time Wind Speed Temp Pressure Rel. Hum Rain
14/11:30pm N 9-13 kts 21.8°c 1010.2 hPa 85% 0.0mm
14/11:00pm N 8-10 kts 22.1°c 1010.7 hPa 83% 0.0mm
14/10:30pm N 9-14 kts 22.3°c 1010.5 hPa 82% 0.0mm
14/10:00pm N 9-15 kts 22.4°c 1010.6 hPa 81% 0.0mm
14/09:30pm N 10-13 kts 22.4°c 1010.6 hPa 80% 0.0mm
14/09:00pm N 8-11 kts 22.2°c 1010.6 hPa 81% 0.0mm
14/08:30pm N 9-12 kts 22.3°c 1010.6 hPa 80% 0.0mm
14/08:00pm N 7-11 kts 22.5°c 1010.5 hPa 78% 0.0mm
14/07:30pm NNE 9-13 kts 23.3°c 1010.2 hPa 74% 0.0mm
14/07:00pm NNE 9-15 kts 24.2°c 1010.2 hPa 70% 0.0mm
14/06:30pm NNE 9-14 kts 25.0°c 1010.1 hPa 68% 0.0mm
14/06:00pm NE 9-16 kts 25.7°c 1009.8 hPa 65% 0.0mm
14/05:30pm NE 9-16 kts 26.2°c 1009.8 hPa 61% 0.0mm
14/05:00pm ENE 12-18 kts 26.1°c 1009.9 hPa 65% 0.0mm
14/04:30pm ENE 11-16 kts 26.4°c 1010.3 hPa 66% 0.0mm
14/04:00pm ENE 10-17 kts 26.7°c 1010.7 hPa 63% 0.0mm
14/03:30pm ENE 11-16 kts 27.4°c 1011.0 hPa 59% 0.0mm
14/03:00pm E 12-16 kts 27.3°c 1011.3 hPa 60% 0.0mm
14/02:30pm ENE 11-15 kts 26.9°c 1011.5 hPa 56% 0.0mm
14/02:00pm E 10-15 kts 28.2°c 1011.7 hPa 54% 0.0mm
14/01:30pm E 9-13 kts 28.1°c 1011.9 hPa 54% 0.0mm
14/01:00pm E 11-16 kts 27.7°c 1012.2 hPa 54% 0.0mm
14/12:30pm ESE 10-14 kts 28.2°c 1012.6 hPa 56% 0.0mm
14/12:00pm E 8-11 kts 28.1°c 1013.2 hPa 54% 0.0mm
14/11:30am E 8-11 kts 26.3°c 1013.5 hPa 65% 0.0mm
14/11:00am ENE 5-10 kts 27.0°c 1013.8 hPa 68% 0.0mm
14/10:30am NNE 3-8 kts 27.6°c 1013.8 hPa 57% 0.0mm
14/10:00am NNW 5-8 kts 27.6°c 1014.0 hPa 63% 0.0mm
14/09:30am NNW 5-7 kts 26.4°c 1014.0 hPa 63% 0.0mm
14/09:00am N 4-7 kts 26.0°c 1013.9 hPa 68% 0.4mm
14/08:30am WNW 4-6 kts 24.1°c 1014.1 hPa 74% 0.4mm
14/08:00am W 4-5 kts 22.6°c 1014.3 hPa 80% 0.4mm
14/07:30am WNW 2-4 kts 21.4°c 1014.1 hPa 86% 0.4mm
14/07:00am W 3-4 kts 20.7°c 1013.8 hPa 91% 0.4mm
14/06:30am CALM 0 kts 19.6°c 1013.4 hPa 93% 0.4mm
14/06:00am CALM 0 kts 19.4°c 1013.3 hPa 94% 0.4mm
14/05:30am N 3-5 kts 19.1°c 1013.2 hPa 93% 0.4mm
14/05:00am WNW 4-6 kts 19.5°c 1013.2 hPa 91% 0.4mm
14/04:30am WNW 6-7 kts 19.9°c 1013.3 hPa 92% 0.4mm
14/04:00am W 6-7 kts 19.9°c 1013.3 hPa 92% 0.4mm
14/03:30am W 6-8 kts 19.9°c 1013.5 hPa 92% 0.2mm
14/03:00am W 6-7 kts 20.2°c 1013.8 hPa 91% 0.2mm
14/02:30am W 6-7 kts 20.1°c 1014.2 hPa 91% 0.2mm
14/02:00am W 4-5 kts 20.4°c 1014.3 hPa 90% 0.2mm
14/01:30am WNW 1-4 kts 20.8°c 1014.6 hPa 91% 0.2mm
14/01:00am NNW 4 kts 20.5°c 1015.0 hPa 88% 0.0mm
14/12:30am NNW 4-5 kts 20.8°c 1015.4 hPa 87% 0.0mm
14/12:00am NNW 4-5 kts 21.1°c 1015.8 hPa 86% 0.0mm